This is the latest recevied weather packets stored in our database for station/object OK2ILA-14. If no packets are shown the sender has not sent any weather packets the latest 10 day(s).
| Time | Temp. | Humidity | Pressure | Rain* | Wind** | Luminosity | Snow |
|---|---|---|---|---|---|---|---|
| 1777802043 | 23.33° C | 35% | 1017.9 hPa | - | - | - | - |
| 1777801443 | 22.78° C | 35% | 1017.9 hPa | - | - | - | - |
| 1777800850 | 22.78° C | 35% | 1018.2 hPa | - | - | - | - |
| 1777800263 | 22.22° C | 35% | 1018.2 hPa | - | - | - | - |
| 1777799663 | 22.22° C | 35% | 1018.3 hPa | - | - | - | - |
| 1777799062 | 22.22° C | 35% | 1018.2 hPa | - | - | - | - |
| 1777798462 | 22.22° C | 36% | 1018.4 hPa | - | - | - | - |
| 1777797862 | 22.22° C | 35% | 1018.3 hPa | - | - | - | - |
| 1777797262 | 22.22° C | 36% | 1018.3 hPa | - | - | - | - |
| 1777796662 | 21.67° C | 37% | 1018.3 hPa | - | - | - | - |
| 1777796062 | 21.67° C | 37% | 1018.4 hPa | - | - | - | - |
| 1777795462 | 21.67° C | 37% | 1018.3 hPa | - | - | - | - |
| 1777794861 | 21.11° C | 37% | 1018.4 hPa | - | - | - | - |
| 1777794261 | 21.11° C | 38% | 1018.3 hPa | - | - | - | - |
| 1777793661 | 20.56° C | 38% | 1018.3 hPa | - | - | - | - |
| 1777793061 | 21.11° C | 38% | 1018.3 hPa | - | - | - | - |
| 1777792461 | 20.56° C | 40% | 1018.2 hPa | - | - | - | - |
| 1777791261 | 19.44° C | 41% | 1018.3 hPa | - | - | - | - |
| 1777790661 | 19.44° C | 41% | 1018.2 hPa | - | - | - | - |
| 1777790060 | 19.44° C | 43% | 1018.3 hPa | - | - | - | - |
| 1777789460 | 19.44° C | 43% | 1018.2 hPa | - | - | - | - |
| 1777788860 | 19.44° C | 44% | 1018.2 hPa | - | - | - | - |
| 1777788260 | 18.33° C | 47% | 1018.1 hPa | - | - | - | - |
| 1777787660 | 17.78° C | 49% | 1018 hPa | - | - | - | - |
| 1777787060 | 16.67° C | 51% | 1018.1 hPa | - | - | - | - |
* Rain since midnight (hover to see other rain measurements)
** Current wind speed in m/s (hover to see current wind gust speed)